SENTINEL-6 (46984 NORAD) Tracking and Keplerian Element Data
This shows tracking and keplerian element data for the satellite.
Feedback or suggestion? Click here.
Element | Value |
Catalog | 46984 |
Name | SENTINEL-6 |
Epoch Orbit | 731 |
Epoch Day | 17.74943242 |
Epoch Year | 2021 |
RAAN | 280.1706 |
Inclination | 66.0442 |
Eccentricity | 0.0007814 |
Argument of Perigee | 264.8503 |
Mean Anonmoly | 95.1626 |
Mean Motion | 12.80930168 |
Decay Rate | -6.1E-07 |
L1 | 1 46984U 20086A 21017.74943242 -.00000061 00000-0 00000-0 0 9991 |
L2 | 2 46984 66.0442 280.1706 0007814 264.8503 95.1626 12.80930168 7315 |
Live tracking and technical data element details for SENTINEL-6 (NORAD 46984). SENTINEL-6 can be tracked NOW for your location showing map with azimuth and elevation plus other details from your city location.
Track the satellite on the map from your city or location and see movement details for azimuth, elevation, latitude, longitude, range, height, and movement on the map or in text.
IsCatalogInMostPopularTable: catalog: 46984, numindb: 64
Update: records affected: 1
GetName: 46984 SENTINEL-6
Hit Count: updated at: Mon, 18 Jan 2021 16:37:52 GMT